Погода в Тукумане

Аргентина     26°49′31″S   65°13′37″W
темп.,
°C
ветер,
м/с
пор.,
м/с
влажн.,
%
обл.,
%
осадки,
мм/ч
давл.,
гПа
погр.,
м
24 сентября, пт
пт2400:00+15сз22350 0.0 102130
03:00+13зюз11410 0.0 102122
06:00+12зсз11440 0.0 102114
09:00+18св11310 0.0 1022349
12:00+24вюв34220 0.0 10201724
15:00+28юв35200 0.0 10152427
18:00+27вюв33230 0.0 10131863
21:00+19сз22390 0.0 101645
25 сентября, сб
сб2500:00+17сз22430 0.0 101734
03:00+16сз11480 0.0 101616
06:00+14сз22510 0.0 101528
09:00+20св14360 0.0 1015412
12:00+28вюв24230 0.0 10131457
15:00+32юв23180 0.0 10081886
18:00+31вюв22180 0.0 10061224
21:00+23ссз36320 0.0 1009137
26 сентября, вс
вс2600:00+23сз39340 0.0 1010331
03:00+19сз22420 0.0 100933
06:00+18сз22420 0.0 100933
09:00+23ссз01310 0.0 1012294
12:00+30юв33220 0.0 10111290
15:00+33ююв33190 0.0 10081761
18:00+32ю33200 0.0 10071704
21:00+25з22310 0.0 100924
27 сентября, пн
пн2700:00+23сз22350 0.0 101042
03:00+21зсз01420 0.0 101011
06:00+19сз11460 0.0 101120
09:00+25юв11340 0.0 1012344
12:00+31вюв35230 0.0 10091495
15:00+35юв34200 0.0 10052111
18:00+34юв33220 0.0 10042209
21:00+27з22340 0.0 100743
28 сентября, вт
вт2800:00+24з22380 0.0 100952
03:00+22юз27435 0.0 1009167
06:00+23юз394033 0.0 1010496
09:00+25ююз493544 0.0 1013862
12:00+30ю462611 0.0 10121609
15:00+31ююв44280 0.0 10092027
18:00+30ююв34340 0.0 10091678
21:00+23зюз22540 0.0 101272